HVDC transfer

From www.emi.ea.govt.nz provided by the Electricity Authority (New Zealand)
Run at: 20240503101000

Parameters
Date range,30 Sep 2020 - 30 Sep 2020
Time scale,Trading period
Show,Average flow (MW)

Period start,Period end,Trading period,Direction,Energy transfer (GWh),Peak flow (MW),Average flow (MW)
30/09/2020 00:00:00,30/09/2020 00:30:00,1,Northward at Haywards,0.163,326,326
30/09/2020 00:30:00,30/09/2020 01:00:00,2,Northward at Haywards,0.159,318,318
30/09/2020 01:00:00,30/09/2020 01:30:00,3,Northward at Haywards,0.166,331,331
30/09/2020 01:30:00,30/09/2020 02:00:00,4,Northward at Haywards,0.175,349,349
30/09/2020 02:00:00,30/09/2020 02:30:00,5,Northward at Haywards,0.171,341,341
30/09/2020 02:30:00,30/09/2020 03:00:00,6,Northward at Haywards,0.162,323,323
30/09/2020 03:00:00,30/09/2020 03:30:00,7,Northward at Haywards,0.166,332,332
30/09/2020 03:30:00,30/09/2020 04:00:00,8,Northward at Haywards,0.171,341,341
30/09/2020 04:00:00,30/09/2020 04:30:00,9,Northward at Haywards,0.175,350,350
30/09/2020 04:30:00,30/09/2020 05:00:00,10,Northward at Haywards,0.189,378,378
30/09/2020 05:00:00,30/09/2020 05:30:00,11,Northward at Haywards,0.196,391,391
30/09/2020 05:30:00,30/09/2020 06:00:00,12,Northward at Haywards,0.230,459,459
30/09/2020 06:00:00,30/09/2020 06:30:00,13,Northward at Haywards,0.231,462,462
30/09/2020 06:30:00,30/09/2020 07:00:00,14,Northward at Haywards,0.238,475,475
30/09/2020 07:00:00,30/09/2020 07:30:00,15,Northward at Haywards,0.264,527,527
30/09/2020 07:30:00,30/09/2020 08:00:00,16,Northward at Haywards,0.285,570,570
30/09/2020 08:00:00,30/09/2020 08:30:00,17,Northward at Haywards,0.297,594,594
30/09/2020 08:30:00,30/09/2020 09:00:00,18,Northward at Haywards,0.328,655,655
30/09/2020 09:00:00,30/09/2020 09:30:00,19,Northward at Haywards,0.344,687,687
30/09/2020 09:30:00,30/09/2020 10:00:00,20,Northward at Haywards,0.330,659,659
30/09/2020 10:00:00,30/09/2020 10:30:00,21,Northward at Haywards,0.321,641,641
30/09/2020 10:30:00,30/09/2020 11:00:00,22,Northward at Haywards,0.289,578,578
30/09/2020 11:00:00,30/09/2020 11:30:00,23,Northward at Haywards,0.281,562,562
30/09/2020 11:30:00,30/09/2020 12:00:00,24,Northward at Haywards,0.286,572,572
30/09/2020 12:00:00,30/09/2020 12:30:00,25,Northward at Haywards,0.289,577,577
30/09/2020 12:30:00,30/09/2020 13:00:00,26,Northward at Haywards,0.266,531,531
30/09/2020 13:00:00,30/09/2020 13:30:00,27,Northward at Haywards,0.273,545,545
30/09/2020 13:30:00,30/09/2020 14:00:00,28,Northward at Haywards,0.290,580,580
30/09/2020 14:00:00,30/09/2020 14:30:00,29,Northward at Haywards,0.268,535,535
30/09/2020 14:30:00,30/09/2020 15:00:00,30,Northward at Haywards,0.263,525,525
30/09/2020 15:00:00,30/09/2020 15:30:00,31,Northward at Haywards,0.265,530,530
30/09/2020 15:30:00,30/09/2020 16:00:00,32,Northward at Haywards,0.257,514,514
30/09/2020 16:00:00,30/09/2020 16:30:00,33,Northward at Haywards,0.260,520,520
30/09/2020 16:30:00,30/09/2020 17:00:00,34,Northward at Haywards,0.241,481,481
30/09/2020 17:00:00,30/09/2020 17:30:00,35,Northward at Haywards,0.256,511,511
30/09/2020 17:30:00,30/09/2020 18:00:00,36,Northward at Haywards,0.253,506,506
30/09/2020 18:00:00,30/09/2020 18:30:00,37,Northward at Haywards,0.274,548,548
30/09/2020 18:30:00,30/09/2020 19:00:00,38,Northward at Haywards,0.284,568,568
30/09/2020 19:00:00,30/09/2020 19:30:00,39,Northward at Haywards,0.280,559,559
30/09/2020 19:30:00,30/09/2020 20:00:00,40,Northward at Haywards,0.314,627,627
30/09/2020 20:00:00,30/09/2020 20:30:00,41,Northward at Haywards,0.297,593,593
30/09/2020 20:30:00,30/09/2020 21:00:00,42,Northward at Haywards,0.277,553,553
30/09/2020 21:00:00,30/09/2020 21:30:00,43,Northward at Haywards,0.271,542,542
30/09/2020 21:30:00,30/09/2020 22:00:00,44,Northward at Haywards,0.272,543,543
30/09/2020 22:00:00,30/09/2020 22:30:00,45,Northward at Haywards,0.269,538,538
30/09/2020 22:30:00,30/09/2020 23:00:00,46,Northward at Haywards,0.249,497,497
30/09/2020 23:00:00,30/09/2020 23:30:00,47,Northward at Haywards,0.230,460,460
30/09/2020 23:30:00,01/10/2020 00:00:00,48,Northward at Haywards,0.214,427,427
